Terug naar catalogus

CZ-6A DEB

ActiefPO
NORAD 54265·DEBRIS·🇨🇳 China

Gelanceerd Nov 11, 2022 vanaf Taiyuan Satellite Launch Center

Loading…

Volgende Passages (komende 24 uur)

TLE

VersSource: Space-Track

Epoch: Sep 14, 2026, 14:45 UTC

1 54265U 22151G   26257.61520654  .00000237  00000-0  33089-3 0  9992
2 54265  99.0368 134.4096 0379040 178.3207 181.9296 13.39865541187655

Volg CZ-6A DEB in realtime met AllMySat

Download on the App Store